Location: Goll?ig?dem
(16.6773°N, 80.7332°E)
Time: 21:31:37
(UTC+00:00)

GPS 2-17 Rocket1 - Pass Details

Date: 19 May 2025
Orbit: 549 x 622 km, 20.3° (Epoch: 18 June)

Event Time Altitude Azimuth Distance (km) Brightness Sun altitude
Exits shadow 23:10:14 16° 215° (SW) 1,480 4.5 -12.8°
Maximum altitude 23:11:03 17° 201° (SSW) 1,445 4.5 -12.7°
Drops below altitude 10° 23:13:52 10° 160° (SSE) 1,849 5.4 -12.1°
Sets 23:16:51 0° 140° (SE) 2,761 6.6 -11.4°
